Time,TemperatureF,DewpointF,PressureIn,WindDirection,WindDirectionDegrees,WindSpeedMPH,WindSpeedGustMPH,Humidity,HourlyPrecipIn,Conditions,Clouds,dailyrainin,SoftwareType,DateUTC
2013-10-05 00:04:00,55.0,50.0,29.94,SSW,199,0.0,0.0,84,0.00,,,0.00,,2013-10-05 04:04:00,
2013-10-05 00:54:00,54.0,49.0,29.93,SSW,198,0.0,0.0,84,0.00,,,0.00,,2013-10-05 04:54:00,
2013-10-05 01:22:00,53.0,49.0,29.93,South,189,0.0,0.0,87,0.00,,,0.00,,2013-10-05 05:22:00,
2013-10-05 01:52:00,53.0,49.0,29.95,WSW,237,0.0,0.0,87,0.00,,,0.00,,2013-10-05 05:52:00,
2013-10-05 02:22:00,53.0,49.0,29.95,WSW,246,0.0,0.0,86,0.00,,,0.00,,2013-10-05 06:22:00,
2013-10-05 02:52:00,53.0,49.0,29.95,WSW,246,0.0,0.0,86,0.00,,,0.00,,2013-10-05 06:52:00,
2013-10-05 03:02:00,53.0,49.0,29.95,WSW,246,0.0,0.0,86,0.00,,,0.00,,2013-10-05 07:02:00,
2013-10-05 03:52:00,51.0,49.0,29.95,SSW,206,0.0,0.0,92,0.00,,,0.00,,2013-10-05 07:52:00,
2013-10-05 04:23:00,51.0,49.0,29.95,SSW,209,0.0,0.0,92,0.00,,,0.00,,2013-10-05 08:23:00,
2013-10-05 04:52:00,51.0,49.0,29.96,SSW,205,0.0,0.0,92,0.00,,,0.00,,2013-10-05 08:52:00,
2013-10-05 05:22:00,50.0,47.0,29.96,SSW,202,0.0,0.0,90,0.00,,,0.00,,2013-10-05 09:22:00,
2013-10-05 05:54:00,50.0,47.0,29.98,SSW,202,0.0,0.0,91,0.00,,,0.00,,2013-10-05 09:54:00,
2013-10-05 06:23:00,50.0,47.0,29.98,SSW,206,0.0,0.0,90,0.01,,,0.01,,2013-10-05 10:23:00,
2013-10-05 06:30:00,50.0,47.0,29.99,SSW,192,0.0,0.0,91,0.01,,,0.01,,2013-10-05 10:30:00,
2013-10-05 06:54:00,50.0,47.0,29.99,SSW,192,0.0,0.0,91,0.01,,,0.01,,2013-10-05 10:54:00,
2013-10-05 07:02:00,50.0,47.0,29.99,SSW,192,0.0,0.0,91,0.01,,,0.01,,2013-10-05 11:02:00,
2013-10-05 07:11:00,50.0,47.0,29.99,SSW,192,0.0,0.0,91,0.01,,,0.01,,2013-10-05 11:11:00,
2013-10-05 07:22:00,50.0,47.0,29.99,SSW,192,0.0,0.0,91,0.01,,,0.01,,2013-10-05 11:22:00,
2013-10-05 09:22:00,52.0,47.0,30.01,SW,232,0.0,0.0,82,0.00,,,0.01,,2013-10-05 13:22:00,
2013-10-05 09:52:00,54.0,47.0,30.00,SSW,209,0.0,0.0,76,0.00,,,0.01,,2013-10-05 13:52:00,
2013-10-05 10:02:00,54.0,47.0,30.00,SSW,209,0.0,0.0,76,0.00,,,0.01,,2013-10-05 14:02:00,
2013-10-05 10:12:00,54.0,47.0,30.00,SSW,209,0.0,0.0,76,0.00,,,0.01,,2013-10-05 14:12:00,
2013-10-05 11:22:00,58.0,45.0,30.00,South,169,0.0,2.0,63,0.00,,,0.01,,2013-10-05 15:22:00,
2013-10-05 11:33:00,58.0,45.0,30.00,South,169,0.0,2.0,63,0.00,,,0.01,,2013-10-05 15:33:00,
2013-10-05 11:54:00,58.0,44.0,30.00,SSE,168,0.0,0.0,60,0.00,,,0.01,,2013-10-05 15:54:00,
2013-10-05 12:04:00,58.0,44.0,30.00,SSE,168,0.0,0.0,60,0.00,,,0.01,,2013-10-05 16:04:00,
2013-10-05 12:13:00,58.0,44.0,30.00,SSE,168,0.0,0.0,60,0.00,,,0.01,,2013-10-05 16:13:00,
2013-10-05 12:23:00,58.0,44.0,30.00,SSE,168,0.0,0.0,60,0.00,,,0.01,,2013-10-05 16:23:00,
2013-10-05 13:22:00,60.0,44.0,29.96,ENE,58,0.0,0.0,56,0.00,,,0.01,,2013-10-05 17:22:00,
2013-10-05 13:33:00,60.0,44.0,29.96,ENE,58,0.0,0.0,56,0.00,,,0.01,,2013-10-05 17:33:00,
2013-10-05 13:53:00,60.0,44.0,29.96,ENE,58,0.0,0.0,56,0.00,,,0.01,,2013-10-05 17:53:00,
2013-10-05 14:22:00,60.0,47.0,29.95,SSE,155,0.0,0.0,61,0.00,,,0.01,,2013-10-05 18:22:00,
2013-10-05 14:32:00,60.0,47.0,29.95,SSE,155,0.0,0.0,61,0.00,,,0.01,,2013-10-05 18:32:00,
2013-10-05 14:52:00,61.0,45.0,29.95,East,85,0.0,3.0,56,0.00,,,0.01,,2013-10-05 18:52:00,
2013-10-05 15:02:00,61.0,45.0,29.95,East,85,0.0,3.0,56,0.00,,,0.01,,2013-10-05 19:02:00,
2013-10-05 15:11:00,61.0,45.0,29.95,East,85,0.0,3.0,56,0.00,,,0.01,,2013-10-05 19:11:00,
2013-10-05 15:22:00,61.0,45.0,29.95,East,85,0.0,3.0,56,0.00,,,0.01,,2013-10-05 19:22:00,
2013-10-05 15:52:00,61.0,44.0,29.95,NE,47,0.0,3.0,54,0.00,,,0.01,,2013-10-05 19:52:00,
2013-10-05 16:02:00,61.0,44.0,29.95,NE,47,0.0,3.0,54,0.00,,,0.01,,2013-10-05 20:02:00,
2013-10-05 16:22:00,61.0,46.0,29.95,NE,56,0.0,0.0,58,0.00,,,0.01,,2013-10-05 20:22:00,
2013-10-05 16:32:00,61.0,46.0,29.95,NE,56,0.0,0.0,58,0.00,,,0.01,,2013-10-05 20:32:00,
2013-10-05 16:52:00,61.0,46.0,29.95,NE,56,0.0,0.0,58,0.00,,,0.01,,2013-10-05 20:52:00,
2013-10-05 17:54:00,59.0,50.0,29.94,NE,51,0.0,0.0,71,0.00,,,0.01,,2013-10-05 21:54:00,
2013-10-05 18:13:00,57.0,51.0,29.95,ENE,76,0.0,0.0,79,0.00,,,0.01,,2013-10-05 22:13:00,
2013-10-05 18:24:00,57.0,51.0,29.95,ENE,76,0.0,0.0,79,0.00,,,0.01,,2013-10-05 22:24:00,
2013-10-05 18:53:00,53.0,49.0,29.96,ENE,58,0.0,0.0,85,0.00,,,0.01,,2013-10-05 22:53:00,
2013-10-05 19:13:00,52.0,48.0,29.96,NE,49,0.0,0.0,87,0.00,,,0.01,,2013-10-05 23:13:00,
2013-10-05 19:22:00,52.0,48.0,29.96,NE,49,0.0,0.0,87,0.00,,,0.01,,2013-10-05 23:22:00,
2013-10-05 19:43:00,50.0,47.0,29.96,East,82,0.0,0.0,90,0.00,,,0.01,,2013-10-05 23:43:00,
2013-10-05 19:53:00,50.0,47.0,29.96,East,82,0.0,0.0,90,0.00,,,0.01,,2013-10-05 23:53:00,
2013-10-05 20:02:00,50.0,47.0,29.96,East,82,0.0,0.0,90,0.00,,,0.01,,2013-10-06 00:02:00,
2013-10-05 20:12:00,50.0,47.0,29.96,East,82,0.0,0.0,90,0.00,,,0.01,,2013-10-06 00:12:00,
2013-10-05 21:22:00,47.0,45.0,29.98,East,82,0.0,0.0,93,0.00,,,0.01,,2013-10-06 01:22:00,
2013-10-05 21:52:00,47.0,45.0,29.98,East,82,0.0,0.0,93,0.00,,,0.01,,2013-10-06 01:52:00,
2013-10-05 22:02:00,47.0,45.0,29.98,East,82,0.0,0.0,93,0.00,,,0.01,,2013-10-06 02:02:00,
2013-10-05 23:22:00,45.0,44.0,30.01,East,85,0.0,0.0,95,0.00,,,0.01,,2013-10-06 03:22:00,
2013-10-05 23:34:00,45.0,44.0,30.01,East,85,0.0,0.0,95,0.00,,,0.01,,2013-10-06 03:34:00,
2013-10-05 23:45:00,45.0,44.0,30.01,East,85,0.0,0.0,95,0.00,,,0.01,,2013-10-06 03:45:00,
2013-10-05 23:54:00,45.0,44.0,30.01,East,85,0.0,0.0,95,0.00,,,0.01,,2013-10-06 03:54:00,